[[{"header":{"parameterUnit":"m.s-1","parameterCategory":1,"la1":30.2991,"la2":30.254,"lo1":-89.0895,"lo2":-89.0444,"dy":0.0017,"dx":0.0017,"nx":28,"ny":28,"refTime":"2024-04-02T21:00:00:Z","depth":0,"parameterNumber":2,"parameterNumberName":"U-component_of_WINDS"},"data":[0,0,0,0,0,0,0,0,0,0,0,0,0,0,0,0,0,0,0,0,0,0,0,0,0,0,0,0,0,0,0,0,0,0,0,0,0,0,0,0,0,0,0,0,0,0,0,0,0,0,0,0,0,0,0,0,0,0,5.2958,5.2959,0,5.3013,5.3014,5.3014,5.301,5.301,5.3009,5.3008,5.3063,5.3065,5.3068,0,0,0,0,0,0,0,0,0,0,0,0,0,5.285,5.2852,5.2958,5.2959,5.2959,5.3013,5.3014,5.3014,5.301,5.3009,5.3009,5.3008,5.3063,5.3065,5.3068,0,0,0,0,0,0,0,0,0,0,0,0,0,5.29,5.2853,5.2958,5.2964,5.2965,5.3013,5.3014,5.3015,5.3011,5.3009,5.3008,5.3007,5.3062,5.3065,5.3068,5.3113,0,0,5.3078,5.308,0,0,0,0,0,0,0,0,5.2897,5.2904,5.2962,5.2964,5.2965,5.3004,5.2996,5.3048,5.3011,5.2993,5.3008,5.3007,5.3044,5.3049,5.3062,5.3116,5.3118,5.3079,5.3081,5.3082,5.3083,0,0,0,0,0,0,0,5.2894,5.2902,5.298,5.2963,5.2965,5.2964,5.297,5.3006,5.3025,5.2995,5.2995,5.3001,5.3045,5.3059,5.3063,5.3119,5.3079,5.3082,5.3084,5.3085,5.3214,5.3215,0,0,0,0,0,0,5.2889,5.2899,5.2978,5.2981,5.2927,5.2967,5.2973,5.2992,5.3025,5.3028,5.3002,5.3001,5.3054,5.3059,5.3065,5.3121,5.3082,5.3085,5.3087,5.3213,5.3214,5.3216,0,0,0,0,0,0,5.2887,5.2896,5.2976,5.294,5.295,5.297,5.2991,5.2994,5.3008,5.303,5.3034,5.3013,5.3053,5.306,5.3102,5.3123,5.3087,5.309,5.3211,5.3213,5.3215,5.3232,0,0,0,0,0,0,5.2884,5.2895,5.2912,5.2941,5.2952,5.3011,5.2993,5.2996,5.3014,5.3013,5.3041,5.3045,5.3053,5.3097,5.3105,5.3127,5.3092,5.3209,5.3212,5.3214,5.3229,5.3234,5.3238,0,0,0,0,0,5.288,5.2914,5.2913,5.2923,5.2974,5.3012,5.3019,5.3028,5.3016,5.3033,5.3048,5.3044,5.3119,5.3101,5.311,5.3133,5.3208,5.3211,5.3214,5.3227,5.3233,5.3238,0,0,0,0,0,0,5.2887,5.2918,5.2917,5.2962,5.2985,5.3012,5.3034,5.3033,5.306,5.3057,5.3067,5.3073,5.3115,5.3128,5.3107,5.3179,5.3162,5.3167,5.3169,5.3175,5.3179,5.3175,5.3095,0,0,0,0,0,5.2894,5.2923,5.2949,5.2986,5.2997,5.3014,5.3031,5.3036,5.306,5.3069,5.3086,5.3109,5.3139,5.3157,5.3185,5.3232,5.3238,5.3252,5.3256,5.326,5.3264,5.3291,5.3298,5.3226,5.3226,5.3226,0,0,5.2909,5.2929,5.2947,5.2988,5.3006,5.3036,5.3022,5.3054,5.3076,5.3074,5.3114,5.3128,5.3154,5.3199,5.3219,5.3211,5.3286,5.3264,5.3267,5.3269,5.3295,5.3302,5.3308,5.3229,5.3228,5.3228,0,0,5.2951,5.2969,5.3003,5.3021,5.305,5.3061,5.3069,5.3096,5.3106,5.3146,5.3146,5.3172,5.3222,5.3241,5.3257,5.3308,5.3306,5.3317,5.334,5.3366,5.3372,5.3377,5.3395,5.3402,5.3322,5.3322,5.3322,0,5.2965,5.301,5.302,5.3052,5.3071,5.3071,5.3105,5.3123,5.3158,5.3171,5.3162,5.3225,5.3243,5.3292,5.3305,5.3318,5.3328,5.3314,5.337,5.3375,5.338,5.3398,5.3405,5.3323,5.3323,5.3322,5.3322,0,5.3027,5.3059,5.3082,5.3117,5.3139,5.3172,5.3186,5.3207,5.321,5.3222,5.3264,5.3286,5.3319,5.3331,5.3334,5.3381,5.3375,5.3368,5.3351,5.3388,5.3405,5.3412,5.3324,5.3324,5.3324,5.3323,0,0,5.3074,5.3116,5.3124,5.3141,5.3172,5.3197,5.323,5.3263,5.328,5.3305,5.3334,5.3377,5.3371,5.3389,5.3395,5.3418,5.3458,5.3408,5.3408,5.3416,5.3511,5.3517,5.3524,5.3456,5.3458,5.3459,5.3509,0,5.312,5.318,5.319,5.3242,5.3272,5.3273,5.3303,5.3325,5.3338,5.3365,5.3379,5.3409,5.3399,5.341,5.3433,5.3448,5.3477,5.3444,5.3483,5.3485,5.3476,5.3533,5.3539,5.3585,5.3516,5.3517,5.3518,0,5.318,5.3208,5.3264,5.3293,5.3305,5.3332,5.3363,5.3389,5.3415,5.3422,5.3444,5.3447,5.3483,5.3465,5.3514,5.3492,5.3508,5.3518,5.3521,5.3524,5.3503,5.3539,5.36,5.3607,5.3528,5.3528,5.3527,0,5.321,5.3261,5.3301,5.3315,5.335,5.3368,5.3383,5.3408,5.3428,5.3455,5.3468,5.3499,5.3516,5.354,5.3552,5.3538,5.3601,5.3583,5.3608,5.3608,5.3621,5.362,5.3686,5.3632,5.3632,5.3632,5.3632,0,5.326,5.3294,5.3315,5.334,5.3378,5.339,5.3427,5.3442,5.3465,5.3493,5.3496,5.3522,5.3536,5.3564,5.3574,5.3613,5.3621,5.3628,5.363,5.3628,5.3627,5.3639,5.3636,5.3634,5.3633,5.3633,5.3633,0,5.3299,5.3314,5.3358,5.3388,5.3396,5.3423,5.3449,5.3473,5.3486,5.3521,5.353,5.355,5.3584,5.3598,5.3639,5.3646,5.3691,5.3691,5.3683,5.3683,5.3708,5.3705,5.3783,5.3794,5.3733,5.3733,5.3734,0,5.333,5.3356,5.3389,5.3408,5.3424,5.3455,5.3475,5.3487,5.3508,5.3541,5.3561,5.3595,5.3623,5.3676,5.3695,5.3726,5.3727,5.3752,5.3731,5.3729,5.3727,5.3726,5.3729,5.3756,5.3756,5.3757,5.3757,0,5.3383,5.339,5.3418,5.3451,5.3475,5.35,5.3525,5.3541,5.3558,5.3581,5.3616,5.3637,5.368,5.3713,5.3746,5.3762,5.3763,5.3764,5.3771,5.3769,5.3763,5.3767,5.3693,5.3762,5.3761,5.3761,5.3761,5.376,5.3419,5.3443,5.347,5.3503,5.3523,5.3547,5.3571,5.3588,5.3617,5.3653,5.3659,5.3696,5.3722,5.3767,5.3784,5.3813,5.3807,5.3818,5.382,5.3823,5.3824,5.3759,5.3819,5.3819,5.3819,5.3819,5.3819,0,5.3473,5.349,5.352,5.3556,5.3582,5.358,5.3609,5.363,5.3663,5.3688,5.3715,5.3755,5.3788,5.381,5.3843,5.3862,5.3864,5.3871,5.3869,5.3873,5.3828,5.3818,5.3869,5.3869,5.3869,5.3869,5.3869,5.3869,5.3504,5.3544,5.3554,5.3605,5.3623,5.366,5.3676,5.3698,5.3718,5.3763,5.379,5.3804,5.3828,5.3863,5.3894,5.3899,5.3911,5.3919,5.3924,5.3881,5.3876,5.3871,5.3862,5.3921,5.3921,5.3967,5.3967,5.3967]},{"header":{"parameterUnit":"m.s-1","parameterCategory":1,"la1":30.2991,"la2":30.254,"lo1":-89.0895,"lo2":-89.0444,"dy":0.0017,"dx":0.0017,"nx":28,"ny":28,"refTime":"2024-04-02T21:00:00:Z","depth":0,"parameterNumber":3,"parameterNumberName":"V-component_of_WINDS"},"data":[0,0,0,0,0,0,0,0,0,0,0,0,0,0,0,0,0,0,0,0,0,0,0,0,0,0,0,0,0,0,0,0,0,0,0,0,0,0,0,0,0,0,0,0,0,0,0,0,0,0,0,0,0,0,0,0,0,0,-1.2943,-1.2943,0,-1.2948,-1.2948,-1.2948,-1.2979,-1.2979,-1.298,-1.2981,-1.2983,-1.2982,-1.2982,0,0,0,0,0,0,0,0,0,0,0,0,0,-1.2958,-1.2957,-1.2943,-1.2943,-1.2943,-1.2948,-1.2948,-1.2948,-1.2978,-1.2979,-1.298,-1.2981,-1.2983,-1.2982,-1.2982,0,0,0,0,0,0,0,0,0,0,0,0,0,-1.2956,-1.2957,-1.2943,-1.2959,-1.296,-1.2948,-1.2948,-1.2948,-1.2978,-1.2979,-1.2981,-1.2982,-1.2983,-1.2982,-1.2982,-1.2953,0,0,-1.2979,-1.2978,0,0,0,0,0,0,0,0,-1.2956,-1.2955,-1.2956,-1.2958,-1.2959,-1.2964,-1.2954,-1.2949,-1.2978,-1.2971,-1.2981,-1.2982,-1.2975,-1.2975,-1.2974,-1.2953,-1.2953,-1.2978,-1.2978,-1.2978,-1.2977,0,0,0,0,0,0,0,-1.2956,-1.2955,-1.2945,-1.2956,-1.2958,-1.2965,-1.2966,-1.2953,-1.2967,-1.2972,-1.2974,-1.2975,-1.2976,-1.2974,-1.2974,-1.2953,-1.2979,-1.2978,-1.2977,-1.2977,-1.2912,-1.2911,0,0,0,0,0,0,-1.2954,-1.2955,-1.2944,-1.2945,-1.296,-1.2964,-1.2965,-1.2961,-1.2967,-1.2969,-1.2974,-1.2976,-1.2976,-1.2975,-1.2974,-1.2942,-1.2978,-1.2977,-1.2976,-1.2913,-1.2911,-1.291,0,0,0,0,0,0,-1.2954,-1.2953,-1.2944,-1.2951,-1.295,-1.2963,-1.2958,-1.2961,-1.2959,-1.2968,-1.2971,-1.2969,-1.2976,-1.2975,-1.2959,-1.2943,-1.2976,-1.2975,-1.2914,-1.2912,-1.2911,-1.2877,0,0,0,0,0,0,-1.2955,-1.2953,-1.2942,-1.295,-1.295,-1.2929,-1.2957,-1.296,-1.2957,-1.296,-1.2965,-1.2967,-1.2977,-1.296,-1.2958,-1.2942,-1.2975,-1.2916,-1.2913,-1.2911,-1.288,-1.2875,-1.287,0,0,0,0,0,-1.2955,-1.2931,-1.2941,-1.294,-1.2937,-1.2928,-1.2927,-1.2941,-1.2956,-1.2945,-1.2952,-1.2966,-1.2945,-1.2958,-1.2956,-1.2939,-1.2917,-1.2914,-1.2911,-1.2882,-1.2876,-1.287,0,0,0,0,0,0,-1.292,-1.2933,-1.2944,-1.2922,-1.2924,-1.2933,-1.292,-1.2934,-1.293,-1.2933,-1.2949,-1.295,-1.2931,-1.2934,-1.2948,-1.2913,-1.2933,-1.293,-1.2912,-1.2906,-1.2901,-1.29,-1.2974,0,0,0,0,0,-1.291,-1.2902,-1.2914,-1.2893,-1.2894,-1.2907,-1.2903,-1.2914,-1.2916,-1.2916,-1.2922,-1.2922,-1.2916,-1.2911,-1.2906,-1.2881,-1.2883,-1.2869,-1.2864,-1.286,-1.2856,-1.2845,-1.2839,-1.2902,-1.2902,-1.2902,0,0,-1.2888,-1.2894,-1.2888,-1.2887,-1.2889,-1.2881,-1.2907,-1.2896,-1.289,-1.2914,-1.2899,-1.2904,-1.2905,-1.2885,-1.2876,-1.2886,-1.284,-1.2856,-1.2853,-1.2852,-1.2841,-1.2835,-1.283,-1.29,-1.29,-1.29,0,0,-1.2845,-1.2849,-1.2833,-1.2836,-1.284,-1.2849,-1.2845,-1.2853,-1.2857,-1.2843,-1.2861,-1.2854,-1.2842,-1.2843,-1.2842,-1.2802,-1.2815,-1.28,-1.2774,-1.2762,-1.2757,-1.2753,-1.2739,-1.2734,-1.2797,-1.2797,-1.2797,0,-1.2817,-1.2806,-1.2823,-1.2812,-1.2811,-1.2834,-1.2819,-1.282,-1.2822,-1.282,-1.2832,-1.282,-1.2822,-1.2803,-1.2794,-1.2792,-1.2788,-1.2799,-1.2757,-1.2753,-1.2749,-1.2736,-1.2731,-1.2795,-1.2795,-1.2795,-1.2795,0,-1.2772,-1.2764,-1.2751,-1.2754,-1.2751,-1.2738,-1.2753,-1.2748,-1.276,-1.2768,-1.2753,-1.2758,-1.2755,-1.2751,-1.2761,-1.2733,-1.274,-1.2754,-1.2775,-1.2741,-1.2729,-1.2724,-1.2792,-1.2793,-1.2793,-1.2794,0,0,-1.2704,-1.2719,-1.2714,-1.2716,-1.2724,-1.2717,-1.2706,-1.2704,-1.27,-1.2701,-1.2691,-1.2682,-1.2696,-1.2695,-1.2706,-1.2696,-1.2665,-1.2712,-1.2712,-1.2703,-1.2635,-1.2624,-1.2618,-1.2674,-1.2673,-1.2673,-1.2635,0,-1.2663,-1.2645,-1.2661,-1.2639,-1.2632,-1.2655,-1.2645,-1.2648,-1.2656,-1.2651,-1.2659,-1.2653,-1.2672,-1.2671,-1.2663,-1.267,-1.2651,-1.2673,-1.2665,-1.2665,-1.2663,-1.2612,-1.2599,-1.2564,-1.2631,-1.263,-1.2629,0,-1.2612,-1.2613,-1.259,-1.2601,-1.2599,-1.259,-1.259,-1.2585,-1.259,-1.2596,-1.2596,-1.2611,-1.26,-1.2621,-1.2607,-1.2622,-1.2619,-1.2623,-1.2622,-1.2621,-1.2644,-1.2609,-1.2553,-1.2547,-1.2622,-1.2622,-1.2623,0,-1.2565,-1.2561,-1.2547,-1.2548,-1.256,-1.2553,-1.2558,-1.2564,-1.2563,-1.2563,-1.2562,-1.2561,-1.256,-1.2558,-1.2572,-1.2586,-1.2556,-1.2578,-1.2561,-1.2561,-1.2552,-1.2553,-1.2494,-1.2552,-1.2552,-1.2552,-1.2552,0,-1.2517,-1.2503,-1.2527,-1.2518,-1.2503,-1.2522,-1.2506,-1.2513,-1.2519,-1.2512,-1.2532,-1.2525,-1.2544,-1.2539,-1.255,-1.2537,-1.2536,-1.2541,-1.2544,-1.2539,-1.2538,-1.2537,-1.254,-1.2551,-1.2551,-1.2551,-1.2551,0,-1.2462,-1.2477,-1.2464,-1.2478,-1.2481,-1.2469,-1.2481,-1.2473,-1.2483,-1.2475,-1.2474,-1.2489,-1.2485,-1.2499,-1.2496,-1.2504,-1.2484,-1.2491,-1.2483,-1.2485,-1.2467,-1.2468,-1.2405,-1.2398,-1.246,-1.246,-1.2459,0,-1.243,-1.242,-1.2433,-1.2431,-1.2435,-1.243,-1.243,-1.2448,-1.2447,-1.2453,-1.2445,-1.2442,-1.2441,-1.2433,-1.2444,-1.2443,-1.245,-1.2428,-1.2449,-1.2445,-1.2449,-1.245,-1.2449,-1.2423,-1.2422,-1.2421,-1.2421,0,-1.2372,-1.2381,-1.2379,-1.2381,-1.238,-1.2382,-1.2385,-1.2382,-1.2402,-1.2399,-1.2396,-1.2395,-1.2394,-1.2391,-1.2393,-1.2397,-1.2412,-1.2415,-1.241,-1.2405,-1.2401,-1.2403,-1.2471,-1.2415,-1.2416,-1.2416,-1.2417,-1.2417,-1.2327,-1.232,-1.2328,-1.2327,-1.2332,-1.2335,-1.2329,-1.2339,-1.2337,-1.2338,-1.235,-1.2344,-1.2351,-1.2355,-1.2358,-1.2354,-1.2364,-1.2358,-1.2356,-1.2354,-1.2351,-1.2402,-1.2354,-1.2354,-1.2354,-1.2355,-1.2355,0,-1.227,-1.2278,-1.2276,-1.2281,-1.228,-1.2296,-1.2301,-1.2299,-1.2294,-1.23,-1.2299,-1.2296,-1.2294,-1.2306,-1.2305,-1.23,-1.2307,-1.2299,-1.23,-1.2301,-1.2342,-1.2346,-1.2294,-1.2294,-1.2294,-1.2294,-1.2294,-1.2294,-1.224,-1.2229,-1.2239,-1.2231,-1.2238,-1.2234,-1.2236,-1.2239,-1.2244,-1.224,-1.2239,-1.2247,-1.2255,-1.2256,-1.2255,-1.2259,-1.2258,-1.2248,-1.2253,-1.2292,-1.2298,-1.2303,-1.2307,-1.2247,-1.2247,-1.2212,-1.2212,-1.2211]}]]